{"data":{"norad_id":62064,"intl_designator":"2024-217H","name":"STARLINK-11456 [DTC]","alt_names":[],"object_type":"PAYLOAD","status":"ACTIVE","operator":null,"country":"US","launch_date":"2024-11-24","launch_site_code":"AFWTR","launch_vehicle":null,"mission":null,"orbit_class":"UNKNOWN","rcs_meters":null,"size_class":null,"mass_kg":null,"dimensions":null,"purposes":["comms"],"wikipedia_slug":null,"has_3d_model":false,"image_url":null,"decayed_at":null,"tle_current":{"epoch":"2026-09-21T06:28:09.444864Z","epoch_age_seconds":114705,"freshness":"FRESH","line1":"1 62064U 24217H   26264.26955376  .00121049  00000+0  98995-3 0  9996","line2":"2 62064  53.1579 186.9655 0001155  74.1258 285.9887 15.69698749105893","mean_motion":15.69698749,"eccentricity":0.0001155,"inclination_deg":53.1579,"raan_deg":186.9655,"arg_perigee_deg":74.1258,"mean_anomaly_deg":285.9887,"bstar":0.00098995,"rev_number":10589,"period_min":91.737347750157,"perigee_km":358.98071968559,"apogee_km":360.53717364927,"semimajor_km":6737.8959466674,"source":"CELESTRAK","updated_at":"2026-09-22T09:00:49.492959Z"}}}